{"data":{"norad_id":51957,"epoch":"2026-05-25T00:18:13.704768Z","epoch_age_seconds":73696,"freshness":"FRESH","line1":"1 51957U 22025B   26145.01265862 -.00000557  00000+0 -61811-5 0  9996","line2":"2 51957  53.1622  41.8901 0001311  98.4525 261.6625 15.31699792232524","mean_motion":15.31699792,"eccentricity":0.0001311,"inclination_deg":53.1622,"raan_deg":41.8901,"arg_perigee_deg":98.4525,"mean_anomaly_deg":261.6625,"bstar":-6.1811e-6,"rev_number":23252,"period_min":94.013200727783,"perigee_km":469.84272740753,"apogee_km":471.63850311826,"semimajor_km":6848.8776152629,"source":"CELESTRAK","updated_at":"2026-05-25T13:38:16.990704Z"}}